Location: Arcadia
(34.1397°N, 118.0353°W)
Time: 22:29:11
(UTC+00:00)

SL-08 R/B - Pass Details

Date: 08 September 2024
Orbit: 949 x 1018 km, 83.0° (Epoch: 13 October)

Event Time Altitude Azimuth Distance (km) Brightness Sun altitude
Rises 11:58:46 0° 350° (N) 3,753 7.7 -19.3°
Reaches altitude 10° 12:01:20 10° 348° (NNW) 2,793 7.0 -18.8°
Maximum altitude 12:07:41 66° 268° (W) 1,082 4.5 -17.6°
Drops below altitude 10° 12:13:54 10° 187° (S) 2,735 6.6 -16.4°
Sets 12:16:24 0° 184° (S) 3,670 7.3 -15.9°
